Simultaneous Nadir Overpasses (SNOs) Predictions

Prediction of SNOs between NOAA-19 and TERRA Satellite Orbit:

Table of predicted SNOs for the next 14.0 days since TLE Epoch: 12/22/2018
Index Date (NOAA-19) Time (NOAA-19) Lat,Lon (NOAA-19) SZA (NOAA-19 ) Date (TERRA) Time (TERRA) Lat,Lon (TERRA) SZA (TERRA ) Distance(km) Time Diff (sec)
1 12/23/2018 10:54:55 77.88, 35.43 101.88 12/23/2018 10:55:59 77.85, 35.45 101.87 2.92 64
2 12/23/2018 11:45:48 -77.81,-156.93 78.16 12/23/2018 11:45:27 -77.82,-157.06 78.17 3.09 21
3 12/25/2018 17:19:24 77.83, -60.34 101.79 12/25/2018 17:19:10 77.84, -60.40 101.79 1.95 14
4 12/27/2018 22:52:49 -77.85, 36.28 78.30 12/27/2018 22:52:55 -77.84, 36.15 78.32 3.29 6
5 12/30/2018 04:26:24 77.85, 132.93 101.57 12/30/2018 04:26:38 77.85, 132.78 101.56 3.66 14
6 12/30/2018 05:17:19 -77.83, -59.67 78.45 12/30/2018 05:16:06 -77.82, -59.71 78.48 1.44 73
7 01/01/2019 09:59:50 -77.89,-130.55 78.59 01/01/2019 10:00:22 -77.89,-130.48 78.58 1.57 32
8 01/01/2019 10:50:54 77.85, 36.89 101.39 01/01/2019 10:49:49 77.83, 36.90 101.35 2.65 65
9 01/03/2019 15:33:24 77.90, -33.88 101.21 01/03/2019 15:34:05 77.90, -33.88 101.22 0.18 41




NCC Satellite Simultaneous Nadir Overpasses (SNOs) Prediction Service
